TimeEDT,TemperatureF,Dew PointF,Humidity,Sea Level PressureIn,VisibilityMPH,Wind Direction,Wind SpeedMPH,Gust SpeedMPH,PrecipitationIn,Events,Conditions,WindDirDegrees,DateUTC
12:13 AM,77.0,77.0,100,30.15,10.0,Calm,Calm,-,N/A,Rain,Light Rain,0,2013-07-30 04:13:00
12:23 AM,77.0,77.0,100,30.14,10.0,ESE,2.3,-,N/A,,Overcast,110,2013-07-30 04:23:00
12:58 AM,75.9,75.9,100,30.15,10.0,Calm,Calm,-,0.00,,Mostly Cloudy,0,2013-07-30 04:58:00
1:13 AM,75.2,75.2,100,30.14,9.0,Calm,Calm,-,N/A,,Mostly Cloudy,0,2013-07-30 05:13:00
1:23 AM,75.2,75.2,100,30.14,10.0,Calm,Calm,-,N/A,,Scattered Clouds,0,2013-07-30 05:23:00
1:58 AM,75.4,75.4,100,30.14,10.0,Calm,Calm,-,N/A,,Mostly Cloudy,0,2013-07-30 05:58:00
2:00 AM,75.2,75.2,100,30.13,10.0,Calm,Calm,-,N/A,,Light Drizzle,0,2013-07-30 06:00:00
2:39 AM,75.2,75.2,100,30.13,10.0,Calm,Calm,-,N/A,,Scattered Clouds,0,2013-07-30 06:39:00
2:58 AM,75.0,75.0,100,30.14,10.0,Calm,Calm,-,0.01,,Mostly Cloudy,0,2013-07-30 06:58:00
3:58 AM,74.7,74.7,100,30.12,10.0,Calm,Calm,-,N/A,,Partly Cloudy,0,2013-07-30 07:58:00
4:53 AM,75.2,75.2,100,30.11,9.0,East,1.2,-,N/A,,Clear,80,2013-07-30 08:53:00
4:58 AM,73.4,73.4,100,30.12,9.0,ENE,1.2,-,N/A,,Clear,70,2013-07-30 08:58:00
5:03 AM,75.2,75.2,100,30.11,9.0,Calm,Calm,-,N/A,,Clear,0,2013-07-30 09:03:00
5:58 AM,73.9,73.9,100,30.13,10.0,South,2.3,-,N/A,,Clear,170,2013-07-30 09:58:00
6:58 AM,73.8,73.8,100,30.16,10.0,Calm,Calm,-,N/A,,Mostly Cloudy,0,2013-07-30 10:58:00
7:58 AM,74.3,74.3,100,30.18,10.0,NE,1.2,-,0.01,,Mostly Cloudy,40,2013-07-30 11:58:00
8:58 AM,76.6,76.6,100,30.18,10.0,Calm,Calm,-,N/A,,Clear,0,2013-07-30 12:58:00
9:58 AM,81.1,77.5,89,30.18,10.0,WNW,4.6,-,N/A,,Clear,290,2013-07-30 13:58:00
10:58 AM,84.9,79.2,83,30.18,10.0,North,4.6,-,N/A,,Clear,350,2013-07-30 14:58:00
11:58 AM,86.5,80.2,81,30.18,10.0,Variable,2.3,-,N/A,,Scattered Clouds,0,2013-07-30 15:58:00
12:58 PM,89.2,80.1,74,30.16,10.0,NNE,4.6,-,N/A,,Scattered Clouds,20,2013-07-30 16:58:00
1:58 PM,88.2,78.3,72,30.15,10.0,Calm,Calm,-,N/A,,Mostly Cloudy,0,2013-07-30 17:58:00
2:58 PM,90.9,79.2,68,30.13,10.0,Calm,Calm,-,N/A,,Mostly Cloudy,0,2013-07-30 18:58:00
3:58 PM,90.1,78.1,68,30.11,10.0,Calm,Calm,-,N/A,,Mostly Cloudy,0,2013-07-30 19:58:00
4:58 PM,90.1,79.3,70,30.10,10.0,ENE,2.3,-,N/A,,Overcast,60,2013-07-30 20:58:00
5:58 PM,91.6,80.8,71,30.08,10.0,East,10.4,-,N/A,,Mostly Cloudy,100,2013-07-30 21:58:00
6:58 PM,86.5,79.5,79,30.11,10.0,ESE,5.8,-,N/A,,Partly Cloudy,120,2013-07-30 22:58:00
7:58 PM,78.8,73.2,83,30.14,10.0,SSW,6.9,-,N/A,,Mostly Cloudy,210,2013-07-30 23:58:00
8:09 PM,78.8,73.4,83,30.13,10.0,Calm,Calm,-,N/A,Rain,Light Rain,0,2013-07-31 00:09:00
8:34 PM,77.0,73.4,89,30.12,10.0,Calm,Calm,-,N/A,,Mostly Cloudy,0,2013-07-31 00:34:00
8:58 PM,75.9,73.4,92,30.13,10.0,Calm,Calm,-,0.00,,Clear,0,2013-07-31 00:58:00
9:58 PM,74.3,74.3,100,30.14,10.0,ESE,2.3,-,N/A,,Clear,120,2013-07-31 01:58:00
10:58 PM,74.5,74.1,99,30.15,10.0,Calm,Calm,-,N/A,,Clear,0,2013-07-31 02:58:00
11:58 PM,73.9,73.9,100,30.14,10.0,Calm,Calm,-,N/A,,Clear,0,2013-07-31 03:58:00